SR5MRF Weather Reports


time (UTC)temp
F
wind
direction
speed
knots
gust
knots
rain 1hr
in
rain 24hr
in
rain mn
in
humidity
%
barometer
mb
20260507101437 62 337 0.0 0.0 0.00 0.00 0.00 68 1008.8
20260507100838 62 315 0.0 0.0 0.00 0.00 0.00 67 1008.6
20260507100737 62 337 0.0 0.0 0.00 0.00 0.00 67 1008.7
20260507100037 62 315 0.0 0.0 0.00 0.00 0.00 67 1008.6
20260507095838 63 292 0.0 0.0 0.00 0.00 0.00 67 1008.5
20260507095337 63 337 0.0 0.0 0.00 0.00 0.00 66 1008.5
20260507094838 63 337 0.0 0.0 0.00 0.00 0.00 66 1008.3
20260507094637 63 337 0.0 0.0 0.00 0.00 0.00 66 1008.2
20260507093937 64 315 0.0 0.0 0.00 0.00 0.00 65 1008.2
20260507093838 64 315 0.0 0.0 0.00 0.00 0.00 65 1008.3
20260507093237 65 337 0.0 0.0 0.00 0.00 0.00 65 1008.2
20260507092838 65 337 0.0 0.0 0.00 0.00 0.00 65 1008.0
20260507092537 65 0 0.0 0.0 0.00 0.00 0.00 65 1008.0
20260507091837 65 315 0.0 0.0 0.00 0.00 0.00 65 1007.9
20260507091137 65 337 0.0 0.0 0.00 0.00 0.00 66 1007.8
20260507090838 65 337 0.0 0.0 0.00 0.00 0.00 66 1007.7
20260507090437 65 337 0.0 0.0 0.00 0.00 0.00 66 1007.8
20260507085838 65 315 0.0 0.0 0.00 0.00 0.00 66 1007.8
20260507085737 65 315 0.0 0.0 0.00 0.00 0.00 66 1007.8
20260507085037 66 315 0.0 0.0 0.00 0.00 0.00 65 1007.5
20260507084838 66 315 0.0 0.0 0.00 0.00 0.00 65 1007.6
20260507084337 66 337 0.0 0.0 0.00 0.00 0.00 66 1007.5
20260507083637 66 337 0.0 0.0 0.00 0.00 0.00 67 1007.3
20260507082937 65 337 0.0 0.0 0.00 0.00 0.00 68 1007.3
20260507082237 64 337 0.0 0.0 0.00 0.00 0.00 67 1007.2
20260507081537 65 337 0.0 0.0 0.00 0.00 0.00 66 1007.0
20260507080837 65 337 0.0 0.0 0.00 0.00 0.00 66 1006.9
20260507080137 66 337 0.0 0.0 0.00 0.00 0.00 66 1007.1
20260507075838 66 337 0.0 0.0 0.00 0.00 0.00 66 1007.0
20260507075437 66 337 0.0 0.0 0.00 0.00 0.00 65 1006.9
20260507074737 66 337 0.0 0.0 0.00 0.00 0.00 65 1006.8
20260507074037 66 315 0.0 0.0 0.00 0.00 0.00 66 1006.8
20260507073838 66 337 0.0 0.0 0.00 0.00 0.00 66 1006.7
20260507073337 66 337 0.0 0.0 0.00 0.00 0.00 66 1006.6
20260507072637 66 0 0.0 0.0 0.00 0.00 0.00 66 1006.5
20260507071937 66 337 0.0 0.0 0.00 0.00 0.00 67 1006.3
20260507071838 66 337 0.0 0.0 0.00 0.00 0.00 67 1006.2
20260507071237 67 315 0.0 0.0 0.00 0.00 0.00 66 1006.3
20260507070838 67 315 0.0 0.0 0.00 0.00 0.00 66 1006.3
20260507070537 67 202 0.0 0.0 0.00 0.00 0.00 66 1006.2
20260507065837 67 337 0.0 0.0 0.00 0.00 0.00 67 1006.3
20260507065137 67 337 0.0 0.0 0.00 0.00 0.00 69 1006.1
20260507064838 66 337 0.0 0.0 0.00 0.00 0.00 71 1006.0
20260507064437 65 337 0.0 0.0 0.00 0.00 0.00 71 1005.9
20260507063737 64 337 0.0 0.0 0.00 0.00 0.00 72 1005.9
20260507063037 64 315 0.0 0.0 0.00 0.00 0.00 72 1005.9
20260507062838 64 247 0.0 0.0 0.00 0.00 0.00 72 1005.7
20260507062337 64 337 0.0 0.0 0.00 0.00 0.00 71 1005.7
20260507061838 64 337 0.0 0.0 0.00 0.00 0.00 71 1005.6
20260507061637 64 337 0.0 0.0 0.00 0.00 0.00 71 1005.6
20260507060937 63 225 0.0 0.0 0.00 0.00 0.00 74 1005.9
20260507060838 63 225 0.0 0.0 0.00 0.00 0.00 74 1005.9
20260507060237 62 337 0.0 0.0 0.00 0.00 0.00 75 1005.9
20260507055838 61 337 0.0 0.0 0.00 0.00 0.00 75 1005.9
20260507055537 61 337 0.0 0.0 0.00 0.00 0.00 75 1005.7
20260507054837 61 337 0.0 0.0 0.00 0.00 0.00 75 1005.6
20260507054137 61 337 0.0 0.0 0.00 0.00 0.00 75 1005.4
20260507053437 60 337 0.0 0.0 0.00 0.00 0.00 75 1005.4
20260507052838 60 337 0.0 0.0 0.00 0.00 0.00 75 1005.4
20260507052737 60 337 0.0 0.0 0.00 0.00 0.00 75 1005.4
20260507052037 60 337 0.0 0.0 0.00 0.00 0.00 76 1005.6
20260507051838 60 337 0.0 0.0 0.00 0.00 0.00 76 1005.7
20260507051337 60 337 0.0 0.0 0.00 0.00 0.00 76 1005.6
20260507050838 60 315 0.0 0.0 0.00 0.00 0.00 76 1005.4
20260507050637 60 337 0.0 0.0 0.00 0.00 0.00 76 1005.3
20260507045937 60 337 0.0 0.0 0.00 0.00 0.00 77 1005.2
20260507045838 60 337 0.0 0.0 0.00 0.00 0.00 77 1005.2
20260507045237 60 337 0.0 0.0 0.00 0.00 0.00 77 1005.2
20260507044838 59 337 0.0 0.0 0.00 0.00 0.00 77 1005.1
20260507044538 59 337 0.0 0.0 0.00 0.00 0.00 77 1005.0
20260507043837 59 315 0.0 0.0 0.00 0.00 0.00 77 1005.0
20260507043137 58 315 0.0 0.0 0.00 0.00 0.00 77 1004.8
20260507042838 58 315 0.0 0.0 0.00 0.00 0.00 77 1004.7
20260507042437 58 337 0.0 0.0 0.00 0.00 0.00 77 1004.6
20260507041838 59 337 0.0 0.0 0.00 0.00 0.00 77 1004.6
20260507041738 59 337 0.0 0.0 0.00 0.00 0.00 77 1004.7
20260507041038 58 337 0.0 0.0 0.00 0.00 0.00 77 1004.7
20260507040838 58 315 0.0 0.0 0.00 0.00 0.00 77 1004.8
20260507040338 58 337 0.0 0.0 0.00 0.00 0.00 76 1004.6
20260507035838 59 337 0.0 0.0 0.00 0.00 0.00 76 1004.7
20260507035638 59 337 0.0 0.0 0.00 0.00 0.00 76 1004.5
20260507034937 59 337 0.0 0.0 0.00 0.00 0.00 76 1004.5
20260507034838 59 337 0.0 0.0 0.00 0.00 0.00 76 1004.6
20260507034238 59 337 0.0 0.0 0.00 0.00 0.00 75 1004.4
20260507033838 59 337 0.0 0.0 0.00 0.00 0.00 75 1004.5
20260507033538 59 337 0.0 0.0 0.00 0.00 0.00 75 1004.4
20260507032838 59 337 0.0 0.0 0.00 0.00 0.00 75 1004.3
20260507032138 59 337 0.0 0.0 0.00 0.00 0.00 75 1004.3
20260507031838 59 337 0.0 0.0 0.00 0.00 0.00 75 1004.3
20260507031438 59 337 0.0 0.0 0.00 0.00 0.00 75 1004.3
20260507030838 59 337 0.0 0.0 0.00 0.00 0.00 75 1004.3
20260507030738 59 337 0.0 0.0 0.00 0.00 0.00 75 1004.2
20260507030038 59 337 0.0 0.0 0.00 0.00 0.00 75 1004.1
20260507025839 59 337 0.0 0.0 0.00 0.00 0.00 75 1004.2
20260507025338 59 337 0.0 0.0 0.00 0.00 0.00 75 1004.2
20260507024839 59 337 0.0 0.0 0.00 0.00 0.00 74 1004.1
20260507024638 59 337 0.0 0.0 0.00 0.00 0.00 74 1004.0
20260507023938 60 337 0.0 0.0 0.00 0.00 0.00 73 1004.1
20260507023839 60 337 0.0 0.0 0.00 0.00 0.00 73 1004.1
20260507023238 60 337 0.0 0.0 0.00 0.00 0.00 73 1004.1
20260507022839 60 337 0.0 0.0 0.00 0.00 0.00 73 1004.1
20260507022538 60 337 0.0 0.0 0.00 0.00 0.00 73 1004.0
20260507021838 60 337 0.0 0.0 0.00 0.00 0.00 74 1004.1
20260507021138 60 315 0.0 0.0 0.00 0.00 0.00 73 1004.0
20260507020839 60 315 0.0 0.0 0.00 0.00 0.00 73 1004.1
20260507020438 60 315 0.0 0.0 0.00 0.00 0.00 72 1004.1
20260507015738 60 315 0.0 0.0 0.00 0.00 0.00 72 1004.1
20260507015038 60 337 0.0 0.0 0.00 0.00 0.00 71 1004.0
20260507014839 61 337 0.0 0.0 0.00 0.00 0.00 71 1004.2
20260507014338 61 337 0.0 0.0 0.00 0.00 0.00 71 1004.2
20260507013839 61 315 0.0 0.0 0.00 0.00 0.00 71 1004.2
20260507013638 61 315 0.0 0.0 0.00 0.00 0.00 70 1004.4
20260507012938 61 337 0.0 0.0 0.00 0.00 0.00 69 1004.2
20260507012839 61 337 0.0 0.0 0.00 0.00 0.00 68 1004.4
20260507012238 61 337 0.0 0.0 0.00 0.00 0.00 68 1004.1
20260507011839 61 337 0.0 0.0 0.00 0.00 0.00 68 1004.1
20260507011538 61 337 0.0 0.0 0.00 0.00 0.00 68 1004.1
20260507010838 62 337 0.0 0.0 0.00 0.00 0.00 68 1004.0
20260507010138 62 315 0.0 0.0 0.00 0.00 0.00 67 1003.7
20260507005438 62 337 0.0 0.0 0.00 0.00 0.00 67 1003.9
20260507004839 62 337 0.0 0.0 0.00 0.00 0.00 67 1003.9
20260507004738 62 337 0.0 0.0 0.00 0.00 0.00 67 1003.8
20260507004038 62 337 0.0 0.0 0.00 0.00 0.00 65 1004.0
20260507003839 62 337 0.0 0.0 0.00 0.00 0.00 65 1004.0
20260507003338 63 292 0.0 0.0 0.00 0.00 0.00 65 1004.0
20260507002839 63 292 0.0 0.0 0.00 0.00 0.00 64 1004.0
20260507002638 63 180 0.0 0.0 0.00 0.00 0.00 64 1004.1
20260507001938 64 315 0.0 0.0 0.00 0.00 0.00 61 1004.2
20260507001839 64 315 0.0 0.0 0.00 0.00 0.00 61 1004.2
20260507001238 64 315 0.0 0.0 0.00 0.00 0.00 61 1004.1
20260507000839 64 315 0.0 0.0 0.00 0.00 0.00 61 1004.0
20260507000538 64 337 0.0 0.0 0.00 0.00 0.00 61 1004.0
20260506235838 64 337 0.0 0.0 0.00 0.00 0.00 61 1003.7
20260506235138 64 247 0.0 0.0 0.00 0.00 0.00 61 1003.7
20260506234839 64 180 0.0 0.0 0.00 0.00 0.00 61 1003.6
20260506234438 64 157 0.0 0.0 0.00 0.00 0.00 61 1003.6
20260506233839 64 202 0.0 0.0 0.00 0.00 0.00 60 1003.5
20260506233738 64 202 0.0 0.0 0.00 0.00 0.00 60 1003.5
20260506233038 64 202 0.0 0.0 0.00 0.00 0.00 60 1003.4
20260506232839 64 202 0.0 0.0 0.00 0.00 0.00 60 1003.5
20260506232338 64 202 0.0 0.0 0.00 0.00 0.00 60 1003.3
20260506231638 64 202 0.0 0.0 0.00 0.00 0.00 60 1003.6
20260506230938 65 202 0.0 0.0 0.00 0.00 0.00 60 1003.5
20260506230839 65 202 0.0 0.0 0.00 0.00 0.00 60 1003.5
20260506230238 65 202 0.0 0.0 0.00 0.00 0.00 60 1003.6
20260506225839 65 225 0.0 0.0 0.00 0.00 0.00 60 1003.7
20260506225538 65 225 0.0 0.0 0.00 0.00 0.00 60 1003.8
20260506224838 65 225 0.0 0.0 0.00 0.00 0.00 60 1003.6
20260506224138 65 225 0.0 0.0 0.00 0.00 0.00 59 1003.8
20260506223839 65 225 0.0 0.0 0.00 0.00 0.00 59 1003.8
20260506223438 65 225 0.0 0.0 0.00 0.00 0.00 59 1003.6
20260506222738 66 225 0.0 0.0 0.00 0.00 0.00 59 1003.6
20260506222038 66 225 0.0 0.0 0.00 0.00 0.00 59 1003.8
20260506221839 66 225 0.0 0.0 0.00 0.00 0.00 59 1003.8
20260506221338 66 202 0.0 0.0 0.00 0.00 0.00 59 1003.8
20260506220638 66 180 0.0 0.0 0.00 0.00 0.00 59 1003.7
20260506215938 66 180 0.0 0.0 0.00 0.00 0.00 60 1003.9
20260506215839 66 180 0.0 0.0 0.00 0.00 0.00 60 1003.8
20260506215238 65 202 0.0 0.0 0.00 0.00 0.00 60 1003.7
20260506214538 65 315 0.0 0.0 0.00 0.00 0.00 59 1003.6
20260506213838 65 315 0.0 0.0 0.00 0.00 0.00 59 1003.3
20260506213138 65 315 0.0 0.0 0.00 0.00 0.00 60 1003.3
20260506212839 65 315 0.0 0.0 0.00 0.00 0.00 60 1003.3
20260506212438 65 315 0.0 0.0 0.00 0.00 0.00 60 1003.2
20260506211738 65 315 0.0 0.0 0.00 0.00 0.00 60 1003.2
20260506211038 65 315 0.0 0.0 0.00 0.00 0.00 59 1003.3
20260506210839 65 315 0.0 0.0 0.00 0.00 0.00 59 1003.4
20260506210338 66 315 0.0 0.0 0.00 0.00 0.00 59 1003.3
20260506205839 66 315 0.0 0.0 0.00 0.00 0.00 58 1003.6
20260506205638 66 315 0.0 0.0 0.00 0.00 0.00 58 1003.6
20260506205214 66 315 0.0 0.0 0.00 0.00 0.00 57 1003.3
20260506204938 66 315 0.0 0.0 0.00 0.00 0.00 57 1003.5
20260506204839 66 315 0.0 0.0 0.00 0.00 0.00 57 1003.3
20260506204238 66 315 0.0 0.0 0.00 0.00 0.00 57 1003.5
20260506203839 66 315 0.0 0.0 0.00 0.00 0.00 57 1003.6
20260506203538 66 315 0.0 0.0 0.00 0.00 0.00 57 1003.6
20260506202838 66 315 0.0 0.0 0.00 0.00 0.00 57 1003.8
20260506202138 66 315 0.0 0.0 0.00 0.00 0.00 57 1003.7
20260506201438 67 315 0.0 0.0 0.00 0.00 0.00 56 1003.7
20260506200738 67 315 0.0 0.0 0.00 0.00 0.00 56 1003.6
20260506200038 67 315 0.0 0.0 0.00 0.00 0.00 56 1003.8
20260506195839 67 315 0.0 0.0 0.00 0.00 0.00 56 1003.9
20260506195338 67 315 0.0 0.0 0.00 0.00 0.00 55 1003.7
20260506194839 68 315 0.0 0.0 0.00 0.00 0.00 54 1003.7
20260506194638 68 315 0.0 0.0 0.00 0.00 0.00 54 1003.6
20260506193938 68 315 0.0 0.0 0.00 0.00 0.00 54 1003.7
20260506193839 68 315 0.0 0.0 0.00 0.00 0.00 54 1003.7
20260506193238 68 315 0.0 0.0 0.00 0.00 0.00 53 1003.5
20260506192538 69 315 0.0 0.0 0.00 0.00 0.00 53 1003.6
20260506191838 69 315 0.0 0.0 0.00 0.00 0.00 53 1003.6
20260506191138 69 315 0.0 0.0 0.00 0.00 0.00 53 1003.6
20260506190839 69 315 0.0 0.0 0.00 0.00 0.00 52 1003.6
20260506190438 70 315 0.0 0.0 0.00 0.00 0.00 52 1003.5
20260506185738 70 315 0.0 0.0 0.00 0.00 0.00 51 1003.3
20260506185038 70 315 0.0 0.0 0.00 0.00 0.00 50 1003.2
20260506184839 70 315 0.0 0.0 0.00 0.00 0.00 50 1003.2
20260506184338 71 315 0.0 0.0 0.00 0.00 0.00 50 1003.2
20260506183839 71 315 0.0 0.0 0.00 0.00 0.00 50 1003.2
20260506183638 71 315 0.0 0.0 0.00 0.00 0.00 50 1003.2
20260506182938 71 337 0.0 0.0 0.00 0.00 0.00 49 1003.1
20260506182238 72 337 0.0 0.0 0.00 0.00 0.00 49 1003.1
20260506181538 72 315 0.0 0.0 0.00 0.00 0.00 48 1003.1
20260506180838 72 337 0.0 0.0 0.00 0.00 0.00 48 1003.0
20260506180138 73 337 0.0 0.0 0.00 0.00 0.00 47 1003.1
20260506175839 73 337 0.0 0.0 0.00 0.00 0.00 47 1003.0
20260506175438 73 337 0.0 0.0 0.00 0.00 0.00 47 1002.9
20260506174839 73 337 0.0 0.0 0.00 0.00 0.00 47 1002.9
20260506174738 73 337 0.0 0.0 0.00 0.00 0.00 47 1002.8
20260506174038 73 337 0.0 0.0 0.00 0.00 0.00 47 1002.9
20260506173839 73 337 0.0 0.0 0.00 0.00 0.00 47 1002.9
20260506173338 73 337 0.0 0.0 0.00 0.00 0.00 46 1002.9
20260506172839 73 337 0.0 0.0 0.00 0.00 0.00 46 1002.7
20260506172638 73 337 0.0 0.0 0.00 0.00 0.00 46 1002.7
20260506171938 74 337 0.0 0.0 0.00 0.00 0.00 46 1002.8
20260506171839 74 315 0.0 0.0 0.00 0.00 0.00 46 1002.9
20260506171238 74 315 0.0 0.0 0.00 0.00 0.00 45 1002.8
20260506170839 74 337 0.0 0.0 0.00 0.00 0.00 45 1002.7
20260506170538 74 337 0.0 0.0 0.00 0.00 0.00 45 1002.7
20260506165838 74 337 0.0 0.0 0.00 0.00 0.00 45 1002.6
20260506165138 75 337 0.0 0.0 0.00 0.00 0.00 44 1002.7
20260506164839 75 337 0.0 0.0 0.00 0.00 0.00 44 1002.6
20260506164438 75 337 0.0 0.0 0.00 0.00 0.00 44 1002.6
20260506163839 75 337 0.0 0.0 0.00 0.00 0.00 44 1002.6
20260506163738 75 337 0.0 0.0 0.00 0.00 0.00 44 1002.6
20260506163038 75 337 0.0 0.0 0.00 0.00 0.00 44 1002.5
20260506162338 75 337 0.0 0.0 0.00 0.00 0.00 43 1002.6
20260506161839 76 202 0.0 0.0 0.00 0.00 0.00 43 1002.4
20260506161638 76 270 0.0 0.0 0.00 0.00 0.00 43 1002.4
20260506160938 76 315 0.0 0.0 0.00 0.00 0.00 43 1002.5
20260506160238 76 337 0.0 0.0 0.00 0.00 0.00 43 1002.3
20260506155839 76 337 0.0 0.0 0.00 0.00 0.00 44 1002.4
20260506155538 76 337 0.0 0.0 0.00 0.00 0.00 44 1002.3
20260506154838 76 337 0.0 0.0 0.00 0.00 0.00 44 1002.5
20260506154139 76 0 0.0 0.0 0.00 0.00 0.00 44 1002.6
20260506153439 76 337 0.0 0.0 0.00 0.00 0.00 44 1002.6
20260506152839 76 337 0.0 0.0 0.00 0.00 0.00 44 1002.7
20260506152739 76 337 0.0 0.0 0.00 0.00 0.00 44 1002.7
20260506152039 76 337 0.0 0.0 0.00 0.00 0.00 43 1002.6
20260506151339 76 202 0.0 0.0 0.00 0.00 0.00 43 1002.5
20260506150840 76 135 0.0 0.0 0.00 0.00 0.00 42 1002.7
20260506150639 76 135 0.0 0.0 0.00 0.00 0.00 42 1002.7
20260506145939 76 180 0.0 0.0 0.00 0.00 0.00 42 1002.8
20260506145839 76 180 0.0 0.0 0.00 0.00 0.00 42 1002.8
20260506145239 77 247 0.0 0.0 0.00 0.00 0.00 42 1002.9
20260506144839 77 247 0.0 0.0 0.00 0.00 0.00 42 1002.7
20260506144539 77 247 0.0 0.0 0.00 0.00 0.00 42 1002.7
20260506143839 77 180 0.0 0.0 0.00 0.00 0.00 42 1002.6
20260506143139 77 157 0.0 0.0 0.00 0.00 0.00 42 1002.5
20260506142839 76 180 0.0 0.0 0.00 0.00 0.00 42 1002.7
20260506142439 76 180 0.0 0.0 0.00 0.00 0.00 42 1002.7
20260506141839 76 180 0.0 0.0 0.00 0.00 0.00 42 1002.7
20260506141739 76 180 0.0 0.0 0.00 0.00 0.00 42 1002.7
20260506141039 76 180 0.0 0.0 0.00 0.00 0.00 42 1002.7
20260506140840 76 180 0.0 0.0 0.00 0.00 0.00 42 1002.7
20260506140339 77 202 0.0 0.0 0.00 0.00 0.00 42 1002.7
20260506135840 77 157 0.0 0.0 0.00 0.00 0.00 42 1002.7
20260506135639 77 337 0.0 0.0 0.00 0.00 0.00 42 1002.8
20260506134939 77 337 0.0 0.0 0.00 0.00 0.00 41 1002.7
20260506134840 77 337 0.0 0.0 0.00 0.00 0.00 41 1002.7
20260506134239 77 135 0.0 0.0 0.00 0.00 0.00 42 1002.5
20260506133539 77 157 0.0 0.0 0.00 0.00 0.00 42 1002.5
20260506132839 77 157 0.0 0.0 0.00 0.00 0.00 42 1002.6
20260506132139 77 315 0.0 0.0 0.00 0.00 0.00 42 1002.5
20260506131840 77 315 0.0 0.0 0.00 0.00 0.00 42 1002.5
20260506131439 77 90 0.0 0.0 0.00 0.00 0.00 42 1002.6
20260506130739 77 22 0.0 0.0 0.00 0.00 0.00 42 1002.6
20260506130039 77 180 0.0 0.0 0.00 0.00 0.00 42 1002.5
20260506125840 77 180 0.0 0.0 0.00 0.00 0.00 42 1002.7
20260506125339 77 337 0.0 0.0 0.00 0.00 0.00 43 1002.6
20260506124639 76 247 0.0 0.0 0.00 0.00 0.00 43 1002.6
20260506123939 76 337 0.0 0.0 0.00 0.00 0.00 43 1002.8
20260506123840 76 337 0.0 0.0 0.00 0.00 0.00 43 1002.7
20260506123239 76 157 0.0 0.0 0.00 0.00 0.00 43 1002.7
20260506122840 76 180 0.0 0.0 0.00 0.00 0.00 42 1002.7
20260506122539 77 90 0.0 0.0 0.00 0.00 0.00 42 1002.7
20260506121839 77 180 0.0 0.0 0.00 0.00 0.00 41 1002.8
20260506121139 77 180 0.0 0.0 0.00 0.00 0.00 41 1002.7
20260506120840 78 0 0.0 0.0 0.00 0.00 0.00 41 1002.6
20260506120439 78 180 0.0 0.0 0.00 0.00 0.00 41 1002.6
20260506115840 78 22 0.0 0.0 0.00 0.00 0.00 41 1002.6
20260506115739 78 292 0.0 0.0 0.00 0.00 0.00 40 1002.7
20260506115039 78 180 0.0 0.0 0.00 0.00 0.00 40 1002.6
20260506114840 78 180 0.0 0.0 0.00 0.00 0.00 40 1002.6
20260506114339 78 180 0.0 0.0 0.00 0.00 0.00 40 1002.7
20260506113639 79 157 0.0 0.0 0.00 0.00 0.00 39 1002.7
20260506112939 80 180 0.0 0.0 0.00 0.00 0.00 38 1002.7
20260506112840 80 180 0.0 0.0 0.00 0.00 0.00 38 1002.7
20260506112239 80 202 0.0 0.0 0.00 0.00 0.00 38 1002.7
20260506111840 81 157 0.0 0.0 0.00 0.00 0.00 38 1002.7
20260506111539 81 180 0.0 0.0 0.00 0.00 0.00 38 1002.7
20260506110839 81 0 0.0 0.0 0.00 0.00 0.00 38 1002.5
20260506110139 81 0 0.0 0.0 0.00 0.00 0.00 38 1002.5
20260506105840 82 180 0.0 0.0 0.00 0.00 0.00 38 1002.5
20260506105439 82 270 0.0 0.0 0.00 0.00 0.00 37 1002.4
20260506104840 82 202 0.0 0.0 0.00 0.00 0.00 37 1002.6
20260506104739 82 180 0.0 0.0 0.00 0.00 0.00 37 1002.5
20260506104039 82 225 0.0 0.0 0.00 0.00 0.00 37 1002.7
20260506103840 82 225 0.0 0.0 0.00 0.00 0.00 37 1002.7
20260506103339 82 157 0.0 0.0 0.00 0.00 0.00 37 1002.8
20260506102840 82 180 0.0 0.0 0.00 0.00 0.00 37 1002.6
20260506102639 82 202 0.0 0.0 0.00 0.00 0.00 37 1002.7
20260506101939 82 180 0.0 0.0 0.00 0.00 0.00 37 1002.7